Location: Miles
(41.4492°N, 81.6087°W)
Time: 21:52:15
(UTC+00:00)

Courier 1B Rocket - Pass Details

Date: 13 September 2024
Orbit: 920 x 1201 km, 28.2° (Epoch: 09 October)

Event Time Altitude Azimuth Distance (km) Brightness Sun altitude
Rises 23:24:05 0° 244° (WSW) 3,798 9.3 1.8°
Reaches altitude 10° 23:27:07 10° 234° (SW) 2,891 8.4 1.2°
Maximum altitude 23:33:02 29° 177° (S) 1,930 6.6 0.1°
Drops below altitude 10° 23:39:16 10° 121° (ESE) 3,055 7.1 -1.0°
Enters shadow 23:42:25 - 111° (ESE) 4,004 7.6 -1.6°
Sets 23:42:34 0° 111° (ESE) 4,049 - -1.7°
